V.C. Bird, Antigua

4:13 PM AST on November 21, 2019 (GMT -0400)
V C Bird International

Weather History for TAPA - October, 2019

Change the Weather History Date:

Wednesday, October 23, 2019

  Actual Average Record
Temperature  
Mean Temperature 82 °F -  
Max Temperature 87 °F 83 °F 88 °F (2014)
Min Temperature 76 °F 74 °F 68 °F (2006)
Cooling Degree Days 16    
Growing Degree Days 32 (Base 50)    
Moisture  
Dew Point 74 °F    
Average Humidity 79    
Maximum Humidity 89    
Minimum Humidity 64    
Precipitation  
Precipitation 0.67 in - - ()
Sea Level Pressure  
Sea Level Pressure 29.90 in    
Wind  
Wind Speed 7 mph ()    
Max Wind Speed 12 mph    
Max Gust Speed 23 mph    
Visibility 7.2 miles    
Events Rain    
Averages and records for this station are not official NWS values.
T = Trace of Precipitation, MM = Missing Value Source: Averaged Metar Reports

Daily Weather History Graph

Daily Weather History Graph

Search for Another Location

Airport or City:

Astronomy

Oct. 23, 2019 Rise Set
Actual Time 6:02 AM AST 5:40 PM AST
Civil Twilight 5:40 AM AST 6:02 PM AST
Nautical Twilight 5:14 AM AST 6:28 PM AST
Astronomical Twilight 4:49 AM AST 6:53 PM AST
Moon 1:19 AM AST (10/23) 2:29 PM AST (10/23)
Length of Visible Light 12h 22m
Length of Day
11h 38m
Waning Crescent, 27% of the Moon is Illuminated
Oct 23
Waning Crescent
Oct 27
New
Nov 4
First Quarter
Nov 12
Full
Nov 19
Last Quarter

Hourly Weather History & Observations

Time (AST) Temp. Heat Index Dew Point Humidity Pressure Visibility Wind Dir Wind Speed Gust Speed Precip Events Conditions
12:00 AM 80.6 °F 85.4 °F 73.4 °F 79% 29.89 in 6.2 mi East 10.4 mph - N/A   Partly Cloudy
1:00 AM 80.6 °F 85.4 °F 73.4 °F 79% 29.89 in 6.2 mi East 6.9 mph - N/A   Partly Cloudy
2:00 AM 80.6 °F 85.4 °F 73.4 °F 79% 29.86 in 6.2 mi East 8.1 mph - N/A   Scattered Clouds
3:00 AM 80.6 °F 85.4 °F 73.4 °F 79% 29.86 in 6.2 mi East 6.9 mph - N/A   Scattered Clouds
4:00 AM 77.0 °F - 73.4 °F 89% 29.86 in 6.2 mi SSE 9.2 mph - N/A Rain Light Rain Showers
5:00 AM 78 °F - 74 °F 86% 29.88 in 19 mi 1.2 mph - -   Partly Cloudy
5:00 AM 78.8 °F - 75.2 °F 89% 29.86 in 6.2 mi Variable 1.2 mph - N/A   Mostly Cloudy
6:00 AM 77.0 °F - 73.4 °F 89% 29.89 in 6.2 mi Variable 2.3 mph - N/A   Scattered Clouds
7:00 AM 78.8 °F - 75.2 °F 89% 29.92 in 6.2 mi Variable 2.3 mph - N/A   Scattered Clouds
8:00 AM 76 °F - - % 29.96 in 1 mi ESE 11.5 mph - - Rain Heavy Rain Showers
8:00 AM 77.0 °F - 71.6 °F 83% 29.95 in 0.6 mi ESE 11.5 mph 23.0 mph N/A Rain Heavy Rain Showers
8:03 AM 77.0 °F - 73.4 °F 89% 29.95 in 6.2 mi ENE 10.4 mph - N/A Rain Light Rain Showers
9:00 AM 77.0 °F - 73.4 °F 89% 29.95 in 6.2 mi ESE 8.1 mph - N/A Rain Light Rain Showers
10:00 AM 82.4 °F 90.9 °F 77.0 °F 84% 29.95 in 6.2 mi ESE 10.4 mph - N/A   Scattered Clouds
11:00 AM 86.0 °F 96.9 °F 77.0 °F 74% 29.95 in 6.2 mi ESE 9.2 mph - N/A   Partly Cloudy
12:00 PM 87.8 °F 97.6 °F 75.2 °F 66% 29.92 in 6.2 mi ESE 9.2 mph - N/A   Partly Cloudy
1:00 PM 86.0 °F 95.1 °F 75.2 °F 70% 29.89 in 6.2 mi ESE 11.5 mph - N/A   Partly Cloudy
2:00 PM 86 °F - 75 °F 64% 29.89 in 19 mi East 9.2 mph - -   Partly Cloudy
2:00 PM 86.0 °F 95.1 °F 75.2 °F 70% 29.89 in 6.2 mi East 9.2 mph - N/A   Scattered Clouds
3:00 PM 86.0 °F 95.1 °F 75.2 °F 70% 29.86 in 6.2 mi ESE 8.1 mph - N/A   Scattered Clouds
4:00 PM 84.2 °F 92.3 °F 75.2 °F 74% 29.86 in 6.2 mi East 8.1 mph - N/A   Mostly Cloudy
5:00 PM 83 °F - 74 °F 69% 29.88 in 19 mi ESE 5.8 mph - -   Partly Cloudy
5:00 PM 82.4 °F 89.5 °F 75.2 °F 79% 29.86 in 6.2 mi ESE 8.1 mph - N/A   Scattered Clouds
6:00 PM 82.4 °F 89.5 °F 75.2 °F 79% 29.89 in 6.2 mi East 5.8 mph - N/A   Scattered Clouds
7:00 PM 80.6 °F 85.4 °F 73.4 °F 79% 29.89 in 6.2 mi East 8.1 mph - N/A   Scattered Clouds
8:00 PM 82.4 °F 89.5 °F 75.2 °F 79% 29.92 in 6.2 mi East 6.9 mph - N/A   Scattered Clouds
9:00 PM 82.4 °F 89.5 °F 75.2 °F 79% 29.92 in 6.2 mi East 5.8 mph - N/A   Scattered Clouds
10:00 PM 82.4 °F 89.5 °F 75.2 °F 79% 29.92 in 6.2 mi East 5.8 mph - N/A   Scattered Clouds
11:00 PM 82.4 °F 88.2 °F 73.4 °F 74% 29.92 in 6.2 mi East 6.9 mph - N/A   Partly Cloudy